Location: Saint-Palais-sur-Mer
(45.6429°N, 1.0859°W)
Time: 16:36:17
(UTC+02:00)

CUBEBUG 2 - Visible Passes

Search period start: 13 July 2025 00:00
Search period end: 23 July 2025 00:00
Orbit: 553 x 642 km, 97.9° (Epoch: 12 July)

Date Brightness Start Highest point End Pass type
(mag) Time Alt. Az. Time Alt. Az. Time Alt. Az.
13 Jul ? 03:48:56 10° NNE 03:52:47 39° E 03:54:39 25° SSE visible
13 Jul ? 05:25:13 10° NNW 05:28:12 20° WNW 05:31:15 10° WSW visible
14 Jul ? 03:59:09 10° NNE 04:03:08 51° E 04:05:04 27° SSE visible
14 Jul ? 05:35:53 10° NNW 05:38:27 16° WNW 05:41:02 10° WSW visible
15 Jul ? 04:09:24 10° NNE 04:13:29 67° ESE 04:15:27 29° S visible
15 Jul ? 05:46:43 10° NNW 05:48:39 13° WNW 05:50:37 10° W visible
16 Jul ? 04:19:40 10° NNE 04:23:48 87° ESE 04:25:51 29° SSW visible
17 Jul ? 02:56:56 10° ENE 02:57:58 11° E 02:59:01 10° ESE visible
17 Jul ? 04:29:59 10° N 04:34:06 73° WNW 04:36:15 28° SSW visible
18 Jul ? 03:06:10 10° ENE 03:08:24 14° E 03:09:57 12° ESE visible
18 Jul ? 04:40:20 10° N 04:44:23 56° WNW 04:46:38 25° SW visible
19 Jul ? 03:15:54 10° NE 03:18:47 18° E 03:20:19 15° ESE visible
19 Jul ? 04:50:43 10° N 04:54:39 44° WNW 04:57:01 22° SW visible
20 Jul ? 03:25:50 10° NE 03:29:10 23° E 03:30:41 19° SE visible
20 Jul ? 05:01:07 10° N 05:04:53 34° WNW 05:07:23 18° SW visible
21 Jul ? 03:35:51 10° NE 03:39:31 29° E 03:41:03 23° SE visible
21 Jul ? 05:11:34 10° N 05:15:07 28° WNW 05:17:45 15° WSW visible
22 Jul ? 03:45:57 10° NNE 03:49:51 37° E 03:51:25 27° SE visible
22 Jul ? 05:22:03 10° NNW 05:25:19 22° WNW 05:28:06 12° WSW visible
